Погода в Сновске

Украина / Черниговская область     51°48′59″N   31°56′32″E
темп.,
°C
ветер,
м/с
пор.,
м/с
влажн.,
%
обл.,
%
осадки,
мм/ч
давл.,
гПа
погр.,
м
31 июля, сб
сб3100:00+19зюз22640 0.0 100917
03:00+18юз346970 0.0 100956
06:00+20юз486956 0.0 1009179
09:00+25зюз46534 0.0 1010469
12:00+28з47455 0.0 10101668
15:00+30з573842 0.0 10092688
18:00+29зюз354356 0.0 1009899
21:00+23ююз345721 0.0 100949
1 августа, вс
вс100:00+21ююз22555 0.0 101026
03:00+20ююз3363100 0.0 101040
06:00+19ю35725 0.0 101072
09:00+24ю345818 0.0 1010370
12:00+30ю46428 0.0 10101373
15:00+30юз484392 0.0 1008571
18:00+21ю2485100 2.7 1009103
21:00+20ю3794100 3.8 1009172
2 августа, пн
пн200:00+19юз35952 0.0 100998
03:00+19ююв229481 0.0 100819
06:00+19ю359471 0.0 1009100
09:00+24ю4776100 0.0 1007331
12:00+30ююз7948100 0.0 10061367
15:00+32юз694129 0.0 10042065
18:00+24ююз35743 2.2 1005210
21:00+21зюз61283100 4.8 1006268
3 августа, вт
вт300:00+17з499017 0.0 1008220
03:00+15з4997100 0.0 1009294
06:00+14зсз489430 0.0 1011232
09:00+19зсз457111 0.0 1012590
12:00+23зсз455017 0.0 10121684
15:00+24зсз56495 0.0 10121460
18:00+23зсз475195 0.0 1012615
21:00+19з336122 0.0 101444
4 августа, ср
ср400:00+19зсз355898 0.0 1015130
03:00+14зсз226922 0.0 101612
06:00+14зюз227396 0.0 101613
09:00+18зюз345925 0.0 1017339
12:00+24з3441100 0.0 10171864
15:00+23з2451100 0.0 1017314
18:00+24з134342 0.0 10161066
21:00+19ююв34596 0.0 101742